Wind_Speed
21 23 26 27 27 26 25 24 23 22 21 21 20 20 18 17 15 14 13 11 10 9 8 8 7 7 6 6 6 6 6 6 6 7 8 9 11 13 14 16 17 17 18 18 18 17 16 16 15 14 13 13 12 12 11 11 11 11 11 11 10 10 10 9 9 10 10 11 11 11 12 12 12 12 13 13 14 14 14 15 15 15 15 16 16
19 19 22 25 26 26 26 25 25 23 23 22 22 21 19 18 17 16 14 14 13 12 11 10 9 9 9 9 9 9 9 9 8 8 8 9 10 11 13 15 16 16 17 17 17 16 16 15 14 13 13 12 12 11 11 11 11 11 10 10 10 10 9 9 9 9 9 9 10 10 11 11 12 12 12 13 13 14 15 15 15 16 17 17 18
19 18 20 22 24 26 27 27 26 25 24 24 23 22 21 20 18 17 16 16 15 14 13 12 12 11 11 11 12 12 12 12 11 10 10 10 10 11 12 13 15 15 16 16 16 16 15 14 13 12 11 11 10 10 10 10 10 10 10 10 10 9 9 9 9 9 9 9 9 10 11 12 12 13 13 13 14 14 15 15 16 17 17 18 18
20 19 19 20 22 25 27 27 27 27 26 25 24 23 22 21 20 19 19 18 17 16 16 15 14 14 14 14 14 14 14 14 13 13 12 12 12 12 12 13 13 14 15 15 15 15 15 14 13 11 10 10 9 9 9 9 9 9 9 9 9 9 9 9 9 9 9 9 9 10 11 11 12 13 14 14 15 15 16 17 17 18 19 19 20
21 19 18 18 20 22 25 27 27 28 27 26 25 24 23 22 21 21 21 20 19 19 18 18 17 17 17 17 16 16 15 15 15 15 14 14 13 13 13 13 13 13 14 14 14 15 14 14 13 12 10 10 9 9 8 8 8 8 8 8 8 8 8 8 8 9 9 10 10 10 11 11 12 13 14 15 15 16 17 18 19 20 20 21 21
22 19 18 18 19 20 22 25 26 26 27 26 26 25 24 23 23 22 22 21 21 21 21 20 20 19 19 19 18 18 17 17 16 16 15 15 15 15 14 14 13 13 13 13 13 13 13 13 13 12 11 11 10 9 9 9 8 8 8 8 8 8 7 7 8 8 9 9 10 11 11 12 13 14 15 16 16 17 17 19 20 20 21 22 22
24 21 19 19 20 20 21 22 23 24 25 26 26 26 25 25 24 24 24 23 23 23 22 22 21 21 21 21 20 20 19 18 17 17 16 16 16 16 15 15 14 13 13 12 12 12 12 12 12 12 12 12 11 11 11 10 10 9 9 9 9 8 8 8 8 8 8 9 10 11 12 13 13 15 16 17 19 19 19 19 20 21 22 22 22
26 24 22 21 21 21 20 20 20 21 23 24 26 27 26 26 26 26 26 26 25 25 24 23 23 23 23 22 21 20 20 19 18 17 16 16 16 16 15 15 14 13 12 11 11 11 10 10 11 11 11 12 12 12 12 12 12 12 11 11 11 10 10 10 9 9 9 10 10 11 12 13 14 15 17 18 20 21 21 21 21 22 22 23 23
29 27 25 23 22 21 20 19 19 20 21 23 25 27 27 27 27 27 27 27 26 25 24 24 23 23 23 22 21 20 19 18 17 17 16 16 15 15 15 14 14 13 12 11 10 9 9 9 9 9 10 11 11 12 12 13 13 13 13 13 13 13 12 12 12 11 11 12 12 12 13 14 14 15 16 18 19 21 22 21 21 21 22 22 22
33 31 29 27 24 22 22 22 21 20 21 23 24 26 26 26 26 27 27 26 26 24 23 23 22 22 22 21 20 19 17 16 16 16 15 15 15 14 14 13 13 12 11 10 10 10 9 9 9 9 9 10 10 11 12 13 14 14 14 14 15 15 14 15 15 14 14 14 14 14 14 14 14 15 16 18 20 21 22 22 21 20 20 20 21
37 35 33 30 27 26 25 24 23 22 23 23 24 25 26 25 25 25 25 25 24 23 22 21 21 20 19 19 19 17 15 14 14 14 14 14 14 13 13 12 11 11 10 10 10 10 10 10 10 10 10 11 11 11 12 13 14 14 13 14 15 15 15 16 16 16 16 16 16 15 15 15 15 16 18 19 21 22 22 21 20 18 18 18 19
40 38 36 33 31 30 28 27 26 24 24 23 24 24 24 24 24 24 24 24 22 21 21 20 18 17 17 17 16 14 12 11 12 13 13 13 13 13 12 12 11 10 10 10 10 9 9 9 10 10 11 11 12 12 12 13 14 15 14 14 14 15 16 16 17 17 17 17 18 17 17 17 18 20 22 22 21 20 19 18 17 16 16 17 19
43 41 38 35 34 32 31 29 28 27 25 24 24 23 24 24 24 24 23 22 21 21 21 20 18 16 16 15 14 12 11 11 12 12 12 11 12 12 12 11 11 10 9 8 8 8 8 9 9 10 10 11 11 11 12 13 14 14 15 15 15 16 17 17 18 19 19 19 18 18 19 21 22 24 26 23 19 18 17 16 17 18 18 18 19
45 43 40 38 36 34 32 31 30 29 28 27 26 25 25 24 24 23 22 22 22 23 21 20 18 17 16 15 13 12 11 11 12 12 12 11 11 11 12 11 10 9 7 6 6 6 7 7 8 9 10 10 10 10 11 12 13 13 13 14 15 16 17 17 19 20 20 19 18 18 20 23 23 24 24 21 18 17 17 17 19 22 23 21 20
47 45 43 40 38 36 35 34 32 31 30 29 29 29 27 25 23 22 22 22 23 22 21 20 19 18 16 15 14 13 12 12 13 13 12 12 12 12 12 11 9 7 5 4 4 5 5 6 7 8 9 10 10 10 11 12 12 13 12 12 13 14 14 15 17 19 18 17 16 16 18 21 21 19 18 18 18 18 18 19 22 25 25 23 21
50 47 45 43 42 40 38 36 34 33 32 32 32 31 29 26 24 23 22 22 22 21 21 20 19 18 17 16 15 14 13 13 14 14 13 13 13 13 11 9 7 5 4 3 4 4 5 6 6 7 8 9 9 10 11 11 12 13 12 12 12 12 11 14 16 17 16 15 14 14 15 17 17 16 14 15 17 18 20 21 22 24 24 22 21
53 50 48 46 44 43 41 39 37 35 34 34 33 32 30 27 25 24 23 23 22 22 21 20 20 19 19 18 17 15 13 13 14 14 14 13 13 12 10 8 7 6 3 3 4 5 5 6 6 7 8 9 10 11 11 11 12 12 12 13 12 11 11 14 16 16 16 14 13 12 12 13 13 13 13 13 15 17 18 19 20 21 21 21 21
55 53 51 48 47 47 45 42 40 38 36 35 34 32 30 28 26 25 24 23 23 22 22 21 21 21 21 20 18 16 14 14 14 15 14 14 14 13 11 10 9 7 5 5 6 6 6 6 7 7 8 9 11 12 12 12 11 11 12 13 13 12 12 15 17 17 15 14 12 10 10 10 10 10 11 11 12 14 16 17 18 19 19 20 21
57 55 53 51 50 49 48 46 43 41 39 38 35 33 31 29 27 26 25 24 24 24 23 23 23 23 23 22 21 18 16 15 16 16 14 14 15 14 13 13 11 8 7 8 9 8 7 7 7 8 8 10 12 13 14 13 12 12 12 13 14 14 14 16 17 17 15 13 11 9 8 8 8 8 9 9 11 14 16 16 17 18 19 20 20
59 58 56 54 53 52 50 49 47 44 42 40 38 36 34 32 30 28 28 27 26 26 26 26 25 25 24 24 23 21 18 17 17 17 16 16 16 16 16 15 13 9 9 10 11 10 9 9 9 9 10 11 13 15 16 15 14 13 12 13 13 14 15 17 17 16 14 13 11 9 7 7 6 7 7 8 11 14 17 17 18 19 20 20 21
61 60 58 57 55 54 52 50 49 47 45 43 41 39 38 36 34 33 32 31 30 29 29 28 27 27 27 26 25 23 20 19 19 19 18 17 17 18 18 17 13 11 11 11 12 11 10 10 11 11 11 12 14 16 17 16 15 14 13 13 13 14 15 17 18 17 15 12 10 8 6 6 6 5 6 7 10 14 17 18 19 20 21 21 21
64 62 60 59 58 56 54 53 51 50 48 45 42 40 39 38 37 37 37 35 34 33 32 31 30 29 29 29 28 25 22 21 21 21 20 19 19 19 19 16 14 13 12 12 12 12 12 12 12 12 12 14 16 18 18 18 16 15 14 14 14 14 16 17 18 18 16 13 10 7 5 5 4 3 4 6 9 14 17 18 19 21 22 22 21
67 63 62 63 62 59 57 55 53 51 49 45 41 40 40 40 40 41 41 39 37 36 35 34 33 32 32 31 30 27 24 23 22 22 22 21 21 21 20 17 16 15 14 12 12 12 13 12 12 12 14 16 18 19 20 19 18 17 17 16 15 15 16 18 19 19 17 15 12 8 6 6 4 1 3 6 9 13 16 19 20 22 23 23 23
70 66 65 67 65 61 59 57 54 51 46 41 40 41 42 43 44 45 44 42 40 38 37 36 36 35 34 33 32 29 26 25 24 23 23 23 22 22 20 19 18 18 17 15 13 13 13 12 12 12 15 18 19 20 21 21 20 19 19 19 18 17 17 18 19 19 18 16 13 10 8 8 6 3 3 7 10 13 16 19 22 23 24 25 25
72 70 69 70 68 63 60 58 55 51 46 43 44 46 46 47 49 49 48 45 43 41 39 38 38 38 37 36 34 31 28 26 26 25 25 24 23 22 20 20 19 20 20 18 16 14 12 11 11 13 16 19 21 21 20 20 21 21 20 21 21 20 19 19 19 19 17 16 14 11 9 9 9 7 6 8 11 14 17 19 21 24 25 25 26
73 73 72 73 72 67 62 59 56 55 53 52 51 51 50 51 54 55 53 49 47 45 42 40 40 40 39 38 36 32 30 28 28 27 26 26 24 22 21 20 19 20 21 21 19 16 13 12 13 16 18 19 21 21 20 20 21 21 21 21 22 22 22 21 19 18 16 15 14 11 9 10 10 10 9 11 14 17 18 18 20 23 24 26 27
73 74 74 75 75 72 66 61 58 57 57 55 53 52 52 54 57 59 59 55 51 49 45 42 41 41 42 40 37 33 31 30 29 29 28 26 25 23 22 21 21 21 22 22 20 17 15 16 18 20 19 19 20 20 20 20 20 21 21 21 21 22 22 22 20 17 15 14 14 11 10 11 12 12 13 15 17 19 19 19 20 22 24 25 27
75 75 75 77 77 76 72 66 62 60 59 56 53 53 55 55 57 61 64 60 55 52 49 45 44 43 44 43 39 35 33 32 31 29 28 25 24 23 23 24 24 23 23 21 19 18 18 19 22 22 21 20 19 18 18 17 18 20 21 20 20 21 21 22 21 18 15 14 14 13 11 11 13 15 16 18 20 21 21 19 19 22 24 25 26
77 76 77 78 79 79 77 72 67 65 63 61 59 58 58 56 56 61 66 64 59 55 52 50 48 46 46 45 43 40 38 36 33 31 28 26 25 25 25 25 25 24 23 21 19 19 20 22 23 23 22 21 19 18 16 15 15 18 20 20 20 21 21 21 21 19 16 15 16 16 14 13 15 17 18 20 22 23 22 20 19 21 22 24 26
81 79 78 79 80 80 80 78 74 71 69 67 65 62 62 63 62 64 66 66 63 58 55 54 52 50 48 48 47 45 43 41 38 36 34 32 30 29 27 25 24 24 23 22 21 22 23 24 24 23 22 21 20 18 16 14 14 16 18 20 21 21 22 22 21 20 20 20 19 18 16 16 17 18 19 21 22 23 23 22 20 21 22 23 25
84 82 80 81 81 81 81 81 80 78 75 73 70 66 65 68 70 68 66 66 65 62 60 58 56 54 52 51 50 49 48 46 44 42 41 39 36 33 30 28 26 25 24 24 24 26 27 26 25 23 21 20 19 18 16 15 16 16 17 19 21 22 23 23 22 23 24 25 23 21 19 19 20 20 20 22 23 24 24 23 23 23 22 22 25
87 85 82 82 83 83 82 83 84 84 82 79 76 72 68 69 71 70 68 65 64 64 63 61 60 58 57 55 53 52 52 51 50 47 45 42 40 37 33 31 29 27 26 26 28 30 30 29 27 25 22 20 19 19 18 18 19 18 18 19 21 22 24 24 23 25 27 28 28 25 24 23 23 23 23 23 25 26 26 25 25 25 24 25 27
91 88 85 83 84 84 83 83 85 87 87 85 81 78 74 72 71 71 70 67 65 64 64 64 63 62 60 59 57 56 54 54 53 51 49 46 43 39 36 34 33 30 29 29 31 32 32 32 30 28 26 24 22 21 21 21 22 21 21 22 23 24 24 24 24 26 28 30 31 31 29 28 28 29 27 26 26 28 29 27 26 26 27 28 30
93 91 88 86 85 84 84 85 86 89 91 91 87 82 79 77 74 72 72 71 68 64 63 64 65 64 63 62 61 59 58 56 55 54 52 50 47 43 39 38 37 35 33 32 32 32 32 33 33 31 29 26 24 23 23 23 24 24 24 25 26 27 27 26 26 28 29 31 33 35 34 32 32 33 31 28 28 29 30 29 28 27 28 30 32
97 95 92 90 88 86 86 87 89 90 92 94 92 88 84 81 78 75 74 73 71 67 64 64 65 66 66 65 64 62 61 59 58 56 54 52 50 47 44 42 41 39 36 34 33 32 32 33 33 33 33 30 26 24 24 24 24 26 27 27 27 28 27 26 27 29 31 33 35 37 38 37 36 35 34 32 32 32 32 32 31 28 28 30 33
102 99 96 94 92 90 88 90 92 93 94 95 94 90 86 84 81 80 78 76 74 71 68 65 65 67 68 68 67 65 63 60 59 57 55 53 51 49 47 46 44 41 38 35 34 33 33 33 34 35 35 34 31 27 26 26 26 27 29 27 24 22 22 24 27 29 31 33 36 38 39 39 39 38 37 38 38 36 35 35 33 31 30 32 35
107 104 101 99 96 95 93 93 94 96 97 97 94 89 85 82 82 83 82 79 76 74 72 69 67 67 68 70 70 67 64 62 60 58 57 55 53 51 50 49 47 43 39 36 35 35 35 35 37 37 37 36 35 32 30 29 30 31 31 28 23 21 22 26 28 29 31 33 35 36 37 38 40 40 40 42 43 41 39 38 36 34 33 34 36
110 109 107 104 102 100 98 97 97 98 99 98 95 90 86 83 82 83 83 82 79 77 75 73 70 68 68 71 71 69 67 64 62 59 57 56 55 53 52 52 49 45 41 39 38 38 38 39 39 38 37 37 37 36 35 34 33 34 33 29 26 27 29 31 31 30 32 34 35 36 37 37 38 40 41 44 45 44 42 41 39 36 34 34 36
113 113 111 109 107 105 103 101 100 101 100 98 96 94 92 89 87 85 84 83 82 79 77 76 73 71 70 70 71 71 69 67 64 61 58 57 57 56 55 54 51 48 45 43 41 40 41 42 41 40 39 38 37 38 37 36 35 35 34 32 31 32 35 37 36 34 34 36 37 39 39 39 38 39 41 44 47 46 43 43 42 39 36 35 35
115 115 115 113 112 110 108 105 103 102 101 100 98 97 97 96 93 90 86 84 83 82 81 79 77 75 74 72 71 71 71 70 67 64 60 58 58 58 57 56 54 51 48 46 44 43 43 44 44 42 40 39 38 38 38 37 37 37 36 35 35 36 39 41 40 39 39 41 42 43 43 42 41 40 40 44 47 47 45 44 44 41 37 37 39
117 117 117 117 116 114 112 109 105 103 103 102 101 101 100 99 97 94 91 88 86 85 84 83 81 80 78 74 72 71 72 72 71 69 65 62 61 59 58 57 56 53 51 48 46 46 46 46 46 44 43 41 39 38 38 39 38 38 38 38 39 41 44 46 47 49 50 49 49 48 48 46 44 43 43 45 47 47 46 46 46 44 42 41 42
119 119 119 119 119 118 116 113 109 106 104 104 105 105 104 102 100 97 94 92 89 87 87 86 85 84 82 78 75 73 73 74 74 72 70 67 65 63 61 59 57 56 54 51 49 48 48 47 47 47 46 44 42 40 39 39 39 40 42 43 45 49 53 55 56 57 57 54 52 52 51 48 45 45 45 47 48 47 46 46 47 47 46 45 45
121 120 120 121 121 121 119 117 113 110 107 106 107 107 106 104 101 99 96 94 92 90 89 88 88 87 86 83 80 78 76 75 76 75 73 72 70 68 65 62 60 58 58 56 55 54 52 50 50 50 50 48 46 43 42 41 42 43 43 43 46 51 56 58 58 58 57 54 53 54 52 49 47 45 45 48 49 48 46 47 48 48 47 47 48
123 122 121 122 122 123 122 120 117 114 111 109 108 109 108 106 103 100 98 97 95 93 91 90 90 90 89 88 86 83 80 79 78 77 76 75 74 72 70 67 64 62 61 61 62 62 60 57 56 55 54 52 51 48 46 45 45 44 43 44 48 53 55 56 57 58 57 57 57 56 55 53 51 49 48 49 52 51 49 48 49 48 49 50 51
125 124 123 123 123 124 124 123 122 119 116 113 111 111 111 109 106 103 101 99 98 96 94 93 93 93 93 92 90 87 84 82 81 80 78 77 76 75 73 72 69 67 66 66 66 66 66 63 61 60 59 58 56 53 51 50 49 48 47 49 53 56 57 58 61 63 63 62 61 60 60 60 59 55 53 53 54 54 53 52 51 51 52 53 53
128 126 125 124 124 125 125 126 125 124 121 118 115 113 112 112 109 106 103 101 100 98 97 96 96 96 96 96 94 91 88 86 85 83 81 80 79 78 77 76 75 73 71 70 69 69 69 67 64 63 62 61 60 58 56 54 53 53 52 52 54 56 59 62 64 65 65 64 62 61 61 61 61 59 59 58 58 57 57 56 55 55 56 55 54
131 129 127 126 125 125 126 127 128 127 125 122 120 117 115 114 112 110 107 105 103 101 100 99 99 99 99 98 97 95 92 90 88 86 85 83 81 80 79 79 78 77 76 74 73 72 72 70 68 66 64 64 63 62 61 59 58 57 56 56 57 59 61 63 62 62 62 62 60 59 60 61 61 60 61 61 60 59 59 59 58 58 58 57 56
132 131 130 128 127 127 127 128 129 129 128 126 124 122 119 118 115 113 111 109 107 105 103 102 102 102 102 101 100 98 95 93 91 90 88 86 84 83 82 81 81 80 79 77 76 75 74 74 73 71 69 67 66 66 65 63 62 61 60 60 59 59 60 61 61 60 61 61 61 61 62 61 61 60 60 60 59 59 59 60 61 61 61 61 59
132 132 132 131 130 129 128 129 130 130 129 128 127 125 124 122 120 118 116 114 111 109 108 107 107 106 105 104 102 101 99 97 95 94 93 91 89 87 86 85 84 83 82 81 80 79 78 77 77 76 74 72 71 70 68 67 65 64 64 62 60 60 61 62 62 61 61 62 64 66 64 61 60 60 61 61 60 59 60 61 62 61 59 58 57
132 133 133 134 133 132 130 130 130 130 129 129 128 128 127 126 124 122 121 119 117 115 112 111 110 109 108 107 105 104 102 101 100 98 97 96 94 92 91 89 88 87 86 85 84 84 82 81 80 78 77 75 74 73 72 70 68 68 67 65 61 61 64 65 64 63 63 65 65 65 63 61 61 62 63 62 60 60 61 62 62 58 55 54 56
132 133 134 134 135 134 133 132 131 131 130 129 129 129 129 128 127 125 124 123 121 118 116 114 112 111 110 109 107 106 105 104 103 102 100 99 97 96 94 93 92 91 90 89 89 88 86 84 82 81 79 78 77 76 75 74 72 70 70 68 65 64 66 68 66 65 65 65 63 62 62 63 65 65 63 61 60 58 57 59 60 59 58 60 64
Wind_Direction
239 238 241 243 242 240 238 236 235 234 233 232 231 232 233 232 231 231 231 232 234 238 242 250 259 268 276 286 293 297 303 310 321 331 339 345 349 353 356 359 1 3 6 8 11 14 18 21 25 28 29 30 31 32 33 35 34 31 28 27 30 33 34 35 34 33 30 26 22 18 13 8 4 360 357 356 354 351 349 348 347 344 341 339 338
243 237 238 241 242 241 238 235 233 231 230 231 233 235 237 238 238 238 237 236 238 240 244 249 256 265 273 280 285 288 292 296 302 312 320 328 335 341 346 350 353 355 357 0 2 5 8 13 17 22 24 26 27 28 28 30 31 29 25 23 22 23 25 26 27 27 25 22 17 10 4 359 355 353 351 350 347 344 343 341 339 337 335 334 333
247 238 234 237 239 239 236 234 232 231 229 229 231 233 236 239 241 242 242 242 243 244 246 249 254 260 267 272 277 282 286 290 296 302 308 314 321 329 335 341 344 347 349 351 354 355 358 2 7 12 17 20 22 24 25 26 27 25 22 20 17 16 16 16 16 15 14 12 8 1 355 351 348 346 345 344 341 339 338 337 335 333 332 331 330
250 243 237 234 236 238 237 235 233 231 230 230 231 232 233 236 239 241 243 244 245 247 248 250 253 255 259 264 268 273 279 285 291 296 300 306 312 318 324 330 334 337 339 342 344 346 348 350 354 359 5 9 13 15 17 19 20 20 17 15 13 11 10 9 6 4 1 359 357 353 348 345 343 341 339 338 337 336 336 335 334 333 332 331 330
251 248 243 236 233 236 239 239 237 234 232 232 233 233 234 236 237 239 241 243 245 245 247 248 250 252 255 258 261 266 271 277 282 287 293 300 305 310 315 319 323 326 329 333 335 338 340 341 344 347 351 356 359 2 5 7 8 8 6 5 3 2 3 2 359 355 351 348 346 344 341 338 337 335 333 333 333 333 333 333 333 333 333 332 331
247 246 243 238 233 233 236 239 240 238 236 235 236 236 237 238 239 241 243 244 245 246 247 248 249 251 253 256 259 261 265 269 274 280 287 293 298 303 306 309 313 316 320 324 327 330 332 335 337 340 343 346 349 350 351 352 353 353 352 350 348 348 349 350 348 345 341 338 337 335 333 332 330 329 327 327 328 328 330 332 331 331 331 331 331
242 239 237 235 234 232 231 234 237 239 239 238 238 239 240 241 242 243 246 247 248 249 250 251 252 252 254 256 258 261 264 267 271 276 281 287 292 296 300 303 306 309 313 316 320 323 327 330 332 336 338 341 343 344 343 342 341 342 342 341 339 337 337 335 333 332 328 326 325 324 322 323 323 322 322 323 324 325 329 332 332 331 330 329 330
235 233 230 228 229 231 231 229 229 232 235 236 237 238 240 241 243 244 246 247 249 250 251 253 254 256 257 258 260 262 265 268 272 275 279 282 286 290 294 297 301 305 309 311 314 319 322 325 329 333 336 337 339 340 339 337 336 337 339 339 337 334 331 327 323 320 317 314 314 313 312 313 315 316 317 319 321 323 328 332 334 333 332 330 329
227 228 227 223 222 224 227 228 224 222 224 228 231 234 236 238 240 242 244 246 248 250 251 252 253 256 259 261 263 265 267 269 272 275 277 279 282 284 288 292 296 300 304 307 310 311 313 317 321 326 329 330 332 333 333 332 332 334 336 336 335 333 330 327 323 318 313 310 308 307 307 308 311 314 316 319 321 324 328 332 333 333 331 329 329
224 224 224 221 217 216 220 222 222 219 217 218 222 227 231 234 236 239 241 244 247 249 250 251 252 254 257 260 263 265 267 269 272 274 276 277 278 279 281 284 288 293 297 300 302 302 303 305 306 308 310 311 313 316 319 322 324 327 330 330 328 328 329 329 327 324 319 314 310 308 307 309 315 320 322 325 327 327 330 333 333 332 329 326 326
222 223 223 221 216 214 214 217 218 219 216 214 214 218 222 226 230 234 238 241 244 245 247 249 249 251 253 256 259 261 263 266 270 272 273 273 274 274 275 276 279 283 288 291 294 296 298 299 298 298 297 297 298 300 301 303 307 312 319 322 320 320 322 324 326 327 326 323 318 314 312 315 321 324 327 329 329 330 333 335 335 332 329 326 326
221 222 223 222 219 215 213 213 215 217 218 216 214 214 215 218 222 225 230 235 238 241 244 245 246 247 250 252 253 253 254 259 263 264 265 266 268 268 268 269 270 273 278 284 290 296 299 302 302 303 302 302 303 300 298 296 296 296 301 305 307 308 310 313 315 318 320 323 323 320 318 319 321 321 324 329 332 334 336 337 334 331 329 329 328
220 221 222 223 223 220 216 213 214 216 218 219 218 217 215 214 214 216 219 224 229 233 237 239 240 242 244 245 244 242 240 243 248 251 253 254 257 260 262 262 263 266 273 283 292 302 308 311 313 314 316 318 319 316 310 305 302 301 300 298 297 298 301 302 303 305 306 309 314 316 315 315 317 319 322 328 334 336 337 335 330 326 328 330 329
221 221 221 222 225 225 221 217 215 215 216 219 220 220 219 215 213 212 213 215 218 223 226 229 232 234 236 235 234 230 224 224 232 239 241 241 245 250 254 256 259 266 276 291 305 314 320 323 325 325 327 333 336 332 327 321 321 321 317 311 305 303 302 301 299 299 300 302 305 308 308 309 313 318 322 325 329 330 328 327 323 321 324 328 327
222 222 221 221 224 226 225 223 219 217 216 218 220 222 222 219 216 214 213 214 217 220 221 223 226 227 229 229 228 222 214 213 222 230 232 233 236 240 245 251 259 269 287 306 319 323 325 329 331 331 334 341 342 339 336 338 341 343 339 332 325 321 315 306 300 300 305 309 311 309 307 309 314 320 321 318 318 317 315 315 315 316 320 324 324
224 223 222 222 223 225 226 226 223 221 219 219 221 223 223 222 220 218 218 219 220 222 224 226 228 229 230 229 228 221 211 210 219 225 228 230 234 240 245 252 261 272 291 311 318 315 318 325 331 332 336 339 338 335 337 345 354 355 353 350 344 339 327 309 305 310 316 320 322 319 316 315 318 321 320 315 312 311 311 312 313 314 317 319 319
225 225 224 223 223 225 225 226 225 224 223 222 222 223 224 224 224 224 224 224 224 226 228 230 233 234 235 235 232 225 218 218 223 227 230 234 239 247 254 259 263 270 280 287 289 294 303 314 322 326 329 329 326 326 331 343 355 359 1 1 357 349 329 313 315 322 326 328 331 330 327 322 319 320 319 315 314 315 316 315 314 314 316 317 316
224 225 225 224 225 226 226 225 225 226 227 226 225 224 224 225 226 228 229 230 230 230 231 233 234 237 239 241 239 234 228 229 232 233 234 238 245 251 255 256 258 260 261 263 269 277 289 299 306 310 315 316 313 314 320 333 348 356 1 3 2 354 337 325 327 331 331 332 335 333 330 326 320 317 316 319 327 333 332 326 321 319 319 320 319
221 223 225 225 225 226 227 226 225 225 227 229 229 228 227 226 227 230 232 234 235 236 236 236 237 239 241 243 244 240 236 236 241 241 240 243 246 250 252 253 254 252 250 255 261 268 275 283 289 294 298 300 301 304 311 323 337 349 355 359 0 356 345 338 336 335 332 331 332 332 333 330 321 318 320 329 345 354 351 342 334 330 329 329 326
219 221 223 224 224 225 227 228 227 226 227 229 231 232 232 232 232 233 234 235 236 238 239 239 240 241 242 243 244 243 241 242 246 248 247 248 249 251 253 255 255 251 248 253 259 265 270 272 277 281 285 289 292 297 305 315 329 340 346 350 353 352 347 342 339 335 331 329 327 329 330 323 314 315 322 335 353 2 360 352 345 341 340 338 335
218 219 221 223 224 224 226 228 229 228 228 229 231 233 235 236 236 236 235 235 236 237 238 239 241 242 243 244 244 243 242 243 247 250 250 251 252 253 255 259 259 254 251 255 261 266 268 270 273 277 280 281 285 292 301 311 322 331 336 340 342 344 343 340 336 332 330 329 327 325 317 306 298 303 317 336 355 1 358 351 346 345 345 343 343
218 219 220 222 223 223 225 227 229 230 230 230 231 234 237 239 240 240 238 236 234 234 235 236 238 240 242 244 244 243 241 241 244 248 250 251 252 254 258 262 264 259 258 262 266 268 269 270 275 279 280 280 283 289 297 306 315 322 326 329 332 335 335 335 332 329 327 325 324 317 302 288 283 297 333 349 359 359 354 347 344 344 345 344 345
218 218 220 222 222 221 222 225 227 229 230 232 234 238 240 242 243 242 240 237 234 233 234 235 236 238 240 241 243 243 242 240 241 244 248 249 251 254 259 265 267 266 266 270 273 273 273 276 282 284 282 282 285 289 295 304 311 315 318 321 324 326 327 328 328 327 327 325 317 304 287 278 271 284 354 358 0 356 349 344 343 344 344 343 344
218 218 220 222 222 220 221 223 225 227 230 234 240 243 244 245 246 244 242 239 236 234 234 236 237 237 238 240 241 241 241 240 240 241 243 246 249 253 258 263 267 269 272 276 278 279 281 285 288 286 282 282 284 288 294 302 308 311 313 316 318 319 320 323 324 327 333 332 320 303 286 277 270 272 334 347 348 345 341 340 342 343 343 342 343
218 218 220 223 222 221 221 222 221 222 225 228 234 239 242 244 246 247 244 240 237 235 234 235 237 237 238 239 240 240 239 239 239 240 241 244 247 250 255 260 265 270 274 278 279 282 287 291 285 278 277 279 283 288 294 299 305 308 310 312 314 314 314 316 320 326 335 337 326 307 286 275 270 270 298 326 334 334 334 337 340 341 342 341 341
218 218 220 222 222 221 221 222 220 218 218 218 222 228 235 239 243 245 244 241 238 236 234 234 236 237 237 237 237 238 238 238 238 239 240 242 245 249 252 257 263 268 272 275 278 280 284 284 275 270 272 277 283 289 293 296 299 304 307 308 308 308 309 312 316 322 329 334 329 313 286 273 273 272 287 310 321 324 326 331 337 340 340 337 337
219 218 220 222 223 221 221 222 221 218 217 217 218 223 228 232 236 240 241 240 238 237 235 235 236 236 237 236 235 234 236 237 237 238 239 241 244 248 251 254 258 262 266 272 278 282 279 273 271 271 274 279 284 288 292 295 298 301 304 304 302 302 304 307 311 316 322 326 324 311 287 275 278 283 290 300 310 316 319 323 333 340 340 337 336
219 219 220 222 222 221 221 221 221 219 217 216 218 223 226 228 232 237 238 237 236 236 236 236 237 237 236 235 233 232 233 235 236 237 239 243 246 247 249 251 253 257 264 272 279 281 276 270 269 271 274 278 282 286 292 296 299 299 299 297 296 296 297 299 302 307 311 312 306 298 289 282 283 288 291 295 304 311 311 314 327 337 339 338 337
220 220 220 221 222 221 221 220 220 221 218 215 216 222 226 227 231 235 235 234 234 234 235 237 238 237 236 235 234 232 232 233 235 238 242 245 247 249 251 254 256 259 265 272 277 276 272 269 268 269 271 273 276 281 288 295 297 294 292 291 290 289 289 290 292 295 298 296 289 286 288 290 290 292 293 295 300 304 303 305 316 328 336 340 339
220 220 220 221 221 221 220 220 220 221 220 218 218 222 226 227 229 232 233 233 233 233 234 236 237 237 237 237 236 235 234 233 234 238 243 246 249 253 256 259 261 263 265 269 272 270 267 265 266 266 267 271 273 274 279 286 288 285 286 286 285 283 282 282 282 284 286 284 278 277 283 287 290 294 296 294 295 296 294 295 302 314 328 338 340
220 220 221 221 221 220 220 219 219 221 222 221 221 223 225 227 229 231 232 233 232 232 232 234 236 237 237 238 238 237 237 236 236 238 242 246 249 254 257 260 262 264 266 267 269 269 267 267 269 269 268 268 268 268 271 278 281 282 284 286 286 284 282 279 277 279 280 278 274 273 276 280 283 287 291 292 291 291 290 290 293 301 313 324 330
219 219 220 221 222 221 220 219 219 220 222 223 223 224 226 228 228 228 229 231 231 232 232 233 234 236 238 239 239 239 239 239 239 240 242 245 248 252 256 259 260 261 263 263 263 266 269 273 278 281 281 277 271 266 266 270 275 280 286 289 290 290 287 283 279 276 276 276 275 274 274 276 277 276 278 283 288 290 290 289 290 294 300 308 314
220 219 219 220 221 222 221 220 219 220 222 224 225 226 228 228 227 227 228 229 230 231 232 233 234 236 237 239 241 241 241 241 241 242 243 245 248 251 255 258 258 257 257 258 260 265 270 276 281 286 289 288 283 279 275 274 274 277 281 284 287 288 288 288 285 281 279 280 280 280 279 279 277 275 273 275 281 286 288 289 290 292 296 302 306
222 220 219 218 220 221 222 221 220 220 222 223 224 226 228 229 228 228 228 229 230 231 232 233 234 235 237 239 240 242 243 243 242 243 244 244 247 250 254 257 256 254 254 256 260 265 270 276 281 285 287 287 285 283 281 278 277 279 278 278 281 283 286 289 290 289 288 289 288 287 286 284 282 279 277 274 275 279 283 288 292 293 293 298 304
224 222 220 219 219 221 223 223 222 222 222 223 224 226 228 229 230 230 230 230 230 230 230 232 233 235 237 239 240 242 244 244 244 245 245 245 246 249 252 255 255 254 254 256 260 265 269 273 279 283 284 284 282 280 279 277 279 282 282 280 279 280 284 289 291 292 293 293 292 291 291 290 288 286 281 276 274 275 279 285 292 294 292 294 298
225 224 223 221 220 220 222 224 224 223 223 223 224 225 227 229 230 230 230 230 230 229 229 231 233 235 236 238 239 241 243 245 246 246 246 245 245 247 249 251 252 253 254 258 262 266 269 271 274 278 280 281 281 281 282 282 284 288 289 284 277 275 283 293 296 295 295 294 293 294 294 293 292 290 286 282 278 277 279 283 288 293 294 293 293
224 225 225 224 223 222 222 223 225 225 225 224 224 224 225 227 229 229 229 229 230 230 230 232 233 235 236 238 239 241 243 244 246 247 246 244 243 244 246 248 250 252 254 257 261 264 266 267 270 273 277 280 281 283 283 284 288 295 296 288 272 265 280 297 300 296 294 294 295 296 296 294 291 290 289 287 284 281 281 282 285 291 294 293 293
223 224 225 225 224 224 223 223 225 226 226 226 224 223 224 226 227 228 228 229 230 230 230 231 233 235 237 238 238 240 242 243 244 246 246 243 242 243 245 247 249 250 252 254 257 259 262 264 266 270 274 279 282 283 280 280 286 294 295 288 272 265 277 294 301 297 294 294 294 296 297 295 292 290 289 288 287 285 284 283 284 287 290 291 293
222 223 224 225 225 225 224 224 224 226 227 226 225 224 225 226 228 229 228 228 229 229 230 231 233 235 237 238 238 239 241 242 243 245 245 244 243 244 246 247 248 248 249 252 254 257 260 263 266 269 272 276 280 280 276 276 283 289 289 285 277 273 279 291 299 298 296 295 295 296 297 295 292 290 288 287 287 286 287 286 283 283 286 288 289
221 222 223 224 225 226 226 225 224 225 226 226 225 225 226 227 229 230 230 229 229 229 230 231 233 235 237 238 238 239 240 242 243 244 244 244 244 245 246 247 247 247 249 251 253 256 259 262 266 270 272 275 278 278 275 274 280 286 285 282 281 281 284 289 293 295 296 296 297 297 297 295 293 291 289 288 286 286 287 287 283 280 280 282 283
221 221 222 223 224 226 226 226 225 225 226 226 225 225 226 227 228 229 230 230 229 229 230 231 233 235 237 238 239 240 241 242 242 243 243 244 244 245 246 246 246 247 248 250 253 256 258 261 265 268 271 273 276 278 276 274 279 285 285 284 286 288 288 288 289 291 293 294 295 295 296 296 295 291 288 287 287 287 287 286 283 278 276 279 283
220 221 221 222 224 225 226 227 226 225 225 225 225 225 227 227 227 228 229 230 230 230 231 232 233 235 237 238 239 240 241 242 243 243 243 244 244 245 245 245 245 246 248 250 253 255 258 261 264 267 269 271 274 276 278 277 278 281 284 287 291 293 291 289 288 288 289 291 292 291 292 294 294 290 286 285 287 288 288 286 283 280 277 278 283
220 221 221 222 223 225 226 227 227 226 225 226 226 226 227 228 228 228 228 229 230 230 231 232 234 235 237 238 238 240 241 243 244 244 244 244 244 244 245 245 245 246 248 250 253 255 258 261 264 267 269 271 272 274 276 277 278 280 285 290 292 289 286 284 283 282 284 290 293 291 289 290 292 289 285 284 284 286 288 286 284 282 279 279 283
220 220 221 221 222 224 225 227 227 227 226 226 226 227 227 228 229 228 228 228 229 230 231 233 234 236 237 238 238 239 241 243 244 244 245 245 245 245 245 245 246 247 248 251 254 256 258 260 263 266 268 270 271 272 273 274 276 279 281 280 275 271 271 273 275 277 283 290 293 289 287 289 291 289 285 283 283 284 285 285 284 282 280 281 283
220 220 221 221 222 223 224 226 227 227 227 227 226 227 227 227 228 229 229 229 229 230 231 233 234 236 237 238 239 239 241 242 243 244 245 245 245 246 246 246 247 248 249 252 255 257 258 259 261 264 266 269 270 271 272 273 274 275 276 274 270 267 267 270 274 277 283 287 288 284 284 288 290 289 287 285 283 282 282 282 281 280 280 281 282
221 221 221 221 221 222 223 225 226 227 228 227 227 227 227 227 228 228 229 229 229 230 231 232 234 235 237 238 239 239 240 242 243 244 244 245 246 246 247 248 249 250 251 253 255 257 259 260 261 263 264 266 269 270 271 272 273 274 275 275 275 274 273 274 275 277 280 283 283 283 284 286 288 289 289 289 285 281 280 280 280 280 280 280 280
221 221 221 221 221 222 223 224 226 227 228 228 228 228 228 228 228 228 228 228 229 230 231 232 234 235 236 238 239 239 240 241 242 243 244 245 246 247 249 250 251 252 253 254 255 257 259 261 262 263 264 265 267 269 270 271 271 272 273 274 276 277 277 277 277 279 280 282 284 285 286 288 290 290 292 292 289 283 279 277 277 277 277 278 280
221 221 222 222 222 222 223 224 225 226 228 228 229 229 229 229 229 229 228 228 229 230 231 233 235 236 237 238 239 239 240 241 242 243 244 245 247 248 250 251 252 253 254 255 256 258 260 262 263 264 264 265 266 267 268 270 270 271 272 273 276 278 278 278 278 279 280 281 284 287 288 289 290 290 290 291 289 285 281 277 275 274 274 276 279
221 221 222 222 222 222 223 224 225 226 227 228 229 229 230 230 230 230 230 230 230 231 233 234 236 237 237 238 239 239 240 240 242 243 244 245 247 249 250 251 252 253 254 256 257 259 261 262 264 264 265 266 266 267 268 268 269 270 271 272 275 276 275 274 275 277 277 278 281 286 288 286 286 288 290 289 286 284 281 279 277 276 274 274 277
222 222 222 222 223 223 223 224 225 226 227 228 229 230 230 231 232 232 232 232 233 233 234 235 236 236 237 238 239 239 240 241 242 243 244 246 247 249 250 251 252 253 255 256 257 259 260 261 263 264 265 266 266 267 267 268 269 269 270 272 274 275 273 271 271 273 274 275 279 282 283 282 284 288 289 286 283 282 281 279 278 276 273 273 277
222 223 223 222 222 223 224 225 225 226 227 228 229 230 231 232 232 233 234 234 235 235 235 235 235 236 237 238 238 239 240 241 242 243 244 246 247 248 250 251 252 253 255 256 257 258 259 260 261 262 263 265 266 266 267 267 268 269 270 271 273 273 272 271 271 273 275 277 279 280 281 282 285 287 285 282 280 280 279 277 276 275 274 275 279
Height
10989 10991 10992 10993 10995 10997 10999 11000 11001 11002 11004 11005 11006 11007 11008 11009 11010 11011 11011 11012 11013 11013 11013 11014 11014 11015 11015 11016 11017 11018 11018 11018 11019 11019 11019 11019 11019 11019 11019 11019 11018 11018 11017 11017 11016 11016 11015 11015 11014 11013 11013 11012 11012 11012 11011 11011 11010 11010 11010 11010 11009 11009 11009 11008 11008 11007 11006 11005 11004 11003 11002 11000 10999 10998 10996 10995 10994 10993 10992 10990 10989 10988 10987 10986 10985
10988 10989 10990 10991 10992 10994 10996 10998 10999 11000 11002 11003 11004 11005 11007 11008 11009 11010 11011 11011 11011 11012 11013 11013 11014 11014 11015 11016 11016 11017 11018 11018 11018 11018 11018 11018 11018 11018 11018 11018 11018 11017 11017 11017 11016 11016 11015 11015 11014 11014 11013 11013 11012 11012 11011 11011 11011 11010 11010 11010 11010 11009 11009 11008 11007 11007 11006 11005 11004 11003 11001 11000 10999 10997 10996 10995 10994 10993 10991 10990 10989 10987 10986 10985 10984
10987 10988 10988 10989 10990 10992 10993 10995 10996 10998 10999 11000 11002 11003 11005 11006 11007 11008 11009 11010 11010 11011 11011 11012 11013 11013 11014 11015 11015 11016 11017 11017 11017 11017 11018 11018 11018 11018 11018 11017 11017 11017 11016 11016 11016 11016 11015 11015 11014 11014 11013 11013 11012 11012 11011 11011 11011 11010 11010 11010 11010 11009 11008 11008 11007 11006 11006 11005 11004 11002 11001 11000 10998 10997 10996 10995 10994 10993 10991 10990 10989 10987 10986 10985 10984
10986 10986 10987 10987 10988 10989 10990 10992 10994 10995 10997 10998 10999 11001 11002 11004 11005 11006 11007 11008 11009 11009 11010 11011 11012 11012 11013 11014 11014 11015 11016 11016 11016 11017 11017 11017 11017 11017 11017 11016 11016 11016 11016 11016 11015 11015 11015 11014 11014 11013 11013 11012 11012 11012 11011 11011 11010 11010 11010 11010 11009 11009 11008 11007 11006 11006 11005 11004 11003 11002 11000 10999 10998 10997 10996 10995 10993 10992 10991 10989 10988 10987 10986 10984 10983
10985 10985 10986 10986 10987 10987 10988 10989 10991 10993 10994 10996 10997 10999 11000 11001 11002 11004 11004 11006 11007 11008 11009 11010 11010 11011 11012 11012 11013 11014 11014 11015 11015 11015 11016 11016 11016 11016 11016 11015 11015 11015 11015 11015 11015 11014 11014 11014 11013 11013 11013 11012 11011 11011 11011 11010 11010 11010 11009 11009 11009 11008 11007 11006 11006 11005 11004 11003 11002 11001 11000 10998 10997 10996 10995 10994 10993 10991 10990 10989 10987 10986 10985 10983 10982
10983 10984 10984 10985 10985 10986 10987 10987 10989 10991 10992 10994 10995 10996 10997 10999 11000 11001 11002 11003 11005 11006 11007 11008 11009 11010 11010 11011 11011 11012 11012 11013 11013 11014 11014 11014 11015 11015 11014 11014 11014 11014 11014 11014 11013 11013 11013 11013 11012 11012 11012 11011 11011 11010 11010 11010 11009 11009 11009 11008 11008 11007 11006 11006 11005 11004 11003 11002 11001 11000 10998 10997 10996 10995 10994 10993 10992 10991 10990 10988 10987 10985 10984 10982 10981
10979 10981 10983 10983 10983 10984 10985 10986 10987 10989 10991 10992 10993 10994 10995 10996 10998 10999 11000 11001 11002 11003 11004 11006 11007 11008 11009 11009 11010 11010 11010 11011 11011 11012 11012 11013 11013 11013 11013 11013 11013 11013 11013 11012 11012 11012 11012 11011 11011 11011 11011 11010 11010 11010 11009 11009 11008 11008 11008 11007 11007 11006 11005 11004 11004 11003 11002 11000 10999 10998 10997 10996 10995 10994 10993 10992 10990 10989 10989 10988 10987 10985 10983 10981 10980
10974 10977 10979 10980 10981 10982 10983 10984 10986 10987 10989 10990 10991 10992 10993 10994 10995 10996 10997 10998 10999 11001 11002 11004 11005 11006 11006 11007 11008 11008 11008 11009 11009 11010 11010 11010 11011 11011 11011 11011 11011 11011 11011 11011 11011 11011 11010 11010 11010 11010 11009 11009 11009 11008 11008 11008 11007 11007 11007 11006 11005 11005 11004 11003 11002 11001 11000 10999 10998 10997 10996 10995 10994 10993 10992 10991 10989 10988 10988 10987 10986 10984 10982 10980 10978
10969 10972 10975 10977 10978 10979 10981 10982 10983 10985 10987 10988 10989 10990 10991 10992 10993 10994 10995 10996 10997 10998 11000 11001 11002 11003 11004 11004 11005 11006 11006 11007 11007 11008 11008 11008 11009 11009 11009 11009 11009 11009 11009 11009 11009 11009 11009 11008 11008 11008 11008 11008 11007 11007 11007 11006 11006 11006 11005 11005 11004 11003 11002 11001 11000 10999 10998 10997 10996 10995 10994 10993 10993 10992 10991 10990 10988 10987 10986 10986 10985 10983 10981 10979 10977
10964 10967 10969 10972 10975 10977 10978 10979 10980 10982 10983 10985 10986 10987 10988 10990 10991 10992 10992 10993 10995 10996 10997 10998 10999 11000 11001 11002 11002 11003 11004 11005 11005 11006 11006 11006 11006 11007 11007 11007 11007 11007 11007 11007 11007 11007 11007 11007 11007 11006 11006 11006 11006 11006 11006 11005 11005 11004 11004 11003 11002 11001 11000 10999 10998 10997 10996 10995 10994 10994 10993 10992 10992 10991 10990 10989 10988 10987 10986 10985 10984 10982 10980 10978 10976
10960 10962 10964 10967 10970 10973 10974 10976 10977 10979 10980 10981 10982 10984 10985 10986 10988 10989 10990 10991 10992 10993 10994 10995 10996 10997 10998 10999 11000 11000 11001 11002 11003 11003 11004 11004 11004 11004 11005 11005 11005 11005 11005 11005 11005 11005 11005 11005 11005 11004 11004 11004 11004 11004 11004 11004 11003 11003 11002 11001 11001 11000 10999 10998 10997 10996 10995 10994 10993 10992 10992 10991 10990 10990 10989 10988 10987 10986 10984 10983 10982 10981 10979 10977 10976
10956 10958 10961 10964 10966 10968 10970 10972 10974 10976 10977 10978 10980 10981 10982 10983 10984 10985 10987 10988 10989 10990 10991 10992 10993 10994 10995 10996 10997 10998 10999 11000 11001 11001 11001 11002 11002 11002 11002 11002 11003 11003 11003 11003 11003 11003 11003 11003 11003 11002 11002 11002 11002 11002 11002 11002 11001 11001 11000 11000 10999 10998 10997 10996 10995 10994 10993 10993 10992 10991 10990 10990 10989 10988 10987 10987 10986 10984 10983 10982 10981 10979 10978 10977 10975
10952 10955 10958 10961 10963 10965 10967 10969 10971 10973 10974 10976 10977 10978 10979 10980 10981 10982 10983 10985 10986 10987 10987 10988 10990 10991 10992 10993 10994 10995 10996 10997 10998 10998 10998 10999 10999 10999 11000 11000 11000 11000 11001 11001 11001 11001 11001 11001 11001 11001 11001 11001 11000 11000 11000 11000 10999 10999 10998 10998 10997 10996 10996 10995 10993 10992 10992 10991 10991 10990 10989 10988 10987 10986 10985 10984 10984 10983 10982 10980 10979 10977 10977 10976 10975
10947 10951 10954 10957 10959 10961 10964 10966 10968 10970 10972 10973 10975 10975 10976 10977 10978 10979 10981 10982 10983 10983 10984 10986 10987 10988 10989 10990 10992 10993 10994 10995 10995 10995 10996 10996 10996 10997 10997 10997 10998 10998 10999 10999 10999 10999 10999 10999 10999 10999 10999 10999 10999 10999 10998 10998 10997 10997 10996 10995 10995 10994 10993 10992 10991 10990 10989 10989 10989 10988 10987 10985 10985 10984 10983 10982 10982 10981 10980 10979 10977 10975 10974 10974 10973
10942 10946 10950 10953 10955 10957 10959 10961 10964 10966 10968 10970 10971 10972 10973 10975 10977 10978 10979 10980 10980 10981 10983 10984 10985 10986 10987 10988 10989 10990 10991 10992 10992 10992 10993 10993 10993 10994 10994 10995 10995 10996 10997 10997 10997 10997 10997 10997 10997 10997 10997 10997 10997 10997 10997 10996 10995 10995 10994 10993 10992 10992 10991 10990 10989 10987 10987 10987 10987 10986 10985 10984 10983 10983 10982 10981 10980 10979 10978 10977 10976 10974 10973 10972 10971
10937 10941 10944 10947 10950 10952 10954 10957 10959 10962 10964 10966 10967 10969 10971 10973 10975 10976 10977 10978 10979 10980 10981 10982 10983 10984 10985 10985 10986 10987 10988 10989 10990 10990 10991 10991 10991 10991 10992 10992 10993 10994 10995 10995 10995 10995 10995 10996 10996 10996 10996 10996 10996 10995 10995 10995 10994 10993 10992 10992 10991 10990 10989 10988 10986 10985 10985 10985 10985 10984 10984 10983 10982 10981 10981 10980 10978 10977 10976 10975 10974 10973 10971 10970 10969
10932 10936 10939 10942 10945 10947 10949 10952 10955 10958 10960 10962 10963 10965 10967 10970 10972 10974 10975 10976 10977 10978 10979 10981 10982 10982 10983 10983 10984 10985 10986 10987 10987 10988 10989 10989 10989 10989 10990 10991 10991 10992 10993 10993 10993 10994 10994 10994 10994 10994 10994 10994 10993 10993 10993 10993 10993 10992 10991 10990 10989 10988 10987 10985 10984 10983 10983 10983 10983 10983 10982 10982 10981 10980 10979 10978 10977 10976 10974 10973 10972 10971 10970 10969 10968
10925 10930 10934 10937 10940 10941 10944 10946 10950 10953 10956 10958 10960 10963 10965 10967 10969 10970 10972 10974 10975 10976 10977 10979 10979 10980 10981 10982 10982 10984 10985 10985 10985 10986 10987 10988 10988 10988 10988 10989 10989 10990 10991 10991 10991 10992 10992 10992 10992 10992 10992 10992 10991 10991 10990 10991 10991 10990 10989 10989 10988 10986 10985 10983 10982 10981 10981 10981 10981 10981 10980 10980 10979 10979 10978 10977 10976 10975 10973 10972 10971 10970 10969 10968 10966
10918 10923 10927 10931 10934 10936 10939 10941 10945 10948 10951 10954 10957 10960 10963 10965 10966 10968 10969 10971 10972 10974 10975 10976 10977 10978 10979 10979 10980 10981 10983 10983 10984 10984 10986 10986 10986 10986 10986 10986 10987 10988 10989 10989 10989 10990 10990 10991 10991 10991 10991 10990 10989 10988 10988 10988 10989 10989 10988 10987 10986 10985 10984 10982 10981 10980 10979 10979 10978 10978 10978 10978 10978 10977 10976 10975 10975 10973 10972 10971 10970 10969 10968 10967 10965
10912 10915 10919 10923 10927 10930 10933 10937 10940 10943 10946 10949 10953 10957 10960 10962 10964 10965 10966 10968 10969 10971 10972 10973 10974 10976 10976 10977 10978 10979 10980 10981 10982 10982 10983 10984 10984 10984 10984 10984 10985 10986 10987 10987 10988 10988 10989 10989 10989 10989 10989 10988 10987 10986 10986 10986 10987 10987 10986 10985 10984 10983 10982 10980 10979 10978 10978 10977 10977 10977 10977 10976 10976 10975 10975 10974 10973 10972 10971 10970 10969 10967 10966 10965 10964
10905 10908 10912 10917 10921 10925 10929 10932 10935 10939 10942 10945 10949 10953 10956 10959 10961 10962 10963 10964 10966 10967 10968 10970 10971 10973 10974 10974 10975 10976 10978 10979 10979 10980 10981 10981 10982 10982 10982 10982 10983 10984 10985 10985 10986 10986 10987 10987 10987 10987 10987 10986 10985 10984 10984 10984 10984 10985 10985 10984 10983 10981 10980 10979 10977 10977 10976 10976 10976 10975 10975 10975 10974 10974 10973 10972 10972 10971 10969 10968 10967 10966 10965 10964 10963
10898 10902 10907 10911 10914 10918 10923 10926 10930 10934 10938 10943 10947 10950 10954 10957 10959 10960 10961 10961 10962 10963 10965 10966 10968 10969 10970 10971 10972 10974 10975 10976 10977 10977 10978 10978 10979 10979 10980 10980 10982 10983 10983 10983 10984 10984 10985 10985 10985 10986 10985 10984 10983 10983 10982 10982 10982 10983 10982 10982 10981 10980 10979 10977 10976 10975 10974 10974 10974 10974 10973 10972 10972 10971 10971 10971 10970 10969 10968 10967 10966 10964 10963 10962 10961
10892 10897 10901 10903 10906 10911 10915 10919 10924 10929 10935 10941 10946 10949 10952 10955 10956 10957 10957 10958 10959 10960 10961 10962 10964 10965 10966 10968 10969 10971 10973 10974 10974 10974 10974 10975 10976 10977 10977 10979 10980 10981 10981 10982 10982 10983 10983 10983 10984 10984 10983 10982 10981 10981 10980 10980 10980 10980 10980 10980 10979 10979 10978 10976 10975 10974 10974 10973 10972 10972 10971 10971 10970 10969 10969 10968 10968 10968 10967 10965 10964 10962 10961 10959 10958
10885 10891 10893 10894 10899 10905 10909 10914 10920 10927 10934 10941 10945 10946 10949 10952 10953 10954 10954 10955 10956 10957 10958 10959 10960 10961 10963 10964 10966 10968 10969 10971 10971 10971 10971 10971 10972 10974 10975 10977 10978 10979 10979 10980 10981 10981 10981 10982 10982 10981 10980 10979 10979 10978 10978 10978 10978 10978 10977 10977 10977 10977 10976 10975 10974 10973 10973 10972 10971 10970 10970 10969 10968 10968 10967 10966 10965 10965 10964 10963 10962 10960 10958 10957 10956
10878 10883 10885 10887 10892 10899 10904 10908 10915 10922 10929 10934 10936 10937 10941 10946 10948 10949 10950 10952 10953 10954 10954 10955 10956 10957 10959 10960 10962 10964 10966 10967 10967 10968 10967 10968 10969 10970 10972 10974 10975 10976 10977 10978 10979 10979 10980 10980 10979 10979 10977 10976 10975 10976 10976 10976 10975 10975 10974 10974 10974 10973 10973 10973 10973 10972 10971 10970 10969 10968 10968 10967 10967 10966 10965 10964 10963 10962 10962 10961 10959 10958 10956 10954 10953
10869 10874 10877 10880 10885 10892 10897 10903 10909 10913 10916 10919 10921 10924 10930 10935 10939 10942 10945 10947 10948 10949 10950 10951 10952 10953 10954 10956 10958 10960 10962 10963 10963 10964 10964 10965 10965 10967 10969 10970 10972 10973 10974 10974 10976 10977 10977 10977 10976 10975 10974 10973 10972 10972 10973 10973 10972 10972 10971 10971 10970 10969 10969 10969 10970 10969 10969 10969 10968 10966 10966 10965 10964 10963 10962 10961 10960 10959 10959 10958 10957 10955 10954 10952 10951
10860 10865 10869 10872 10877 10884 10890 10896 10901 10906 10908 10910 10912 10913 10917 10923 10928 10932 10937 10940 10941 10943 10945 10947 10948 10949 10950 10952 10954 10956 10958 10959 10959 10959 10960 10961 10963 10964 10966 10967 10968 10969 10969 10970 10972 10973 10974 10973 10972 10971 10970 10970 10969 10969 10969 10970 10969 10968 10968 10967 10967 10966 10965 10965 10965 10966 10966 10966 10965 10964 10964 10963 10962 10961 10960 10959 10957 10956 10956 10955 10954 10953 10951 10950 10948
10850 10855 10860 10864 10869 10875 10882 10888 10893 10897 10901 10904 10906 10906 10907 10912 10917 10921 10926 10931 10934 10937 10940 10942 10943 10944 10945 10947 10950 10952 10953 10953 10954 10955 10956 10958 10959 10961 10961 10962 10963 10964 10965 10966 10968 10969 10969 10968 10967 10967 10967 10967 10967 10966 10967 10967 10966 10965 10964 10964 10963 10963 10962 10962 10961 10962 10962 10962 10962 10961 10961 10960 10960 10959 10957 10956 10955 10954 10953 10952 10951 10950 10949 10947 10945
10841 10846 10850 10854 10859 10866 10872 10879 10884 10888 10891 10895 10897 10898 10900 10904 10907 10910 10915 10921 10926 10929 10933 10936 10937 10938 10940 10942 10944 10947 10947 10948 10949 10951 10952 10954 10955 10955 10956 10957 10958 10960 10961 10963 10964 10965 10964 10963 10962 10962 10963 10963 10963 10963 10963 10963 10963 10962 10961 10961 10960 10959 10959 10958 10958 10958 10958 10958 10957 10957 10957 10957 10956 10956 10955 10953 10952 10951 10949 10949 10948 10947 10945 10944 10942
10831 10836 10841 10845 10850 10856 10863 10869 10874 10878 10882 10886 10888 10890 10892 10896 10899 10901 10906 10912 10918 10921 10924 10927 10930 10932 10934 10936 10938 10940 10941 10942 10944 10946 10947 10948 10949 10951 10952 10953 10954 10956 10957 10959 10960 10960 10959 10958 10958 10958 10958 10959 10959 10959 10960 10960 10960 10959 10958 10957 10957 10956 10955 10954 10954 10954 10954 10954 10953 10953 10953 10953 10952 10952 10951 10950 10948 10947 10946 10945 10944 10943 10942 10940 10938
10821 10827 10832 10836 10841 10846 10852 10859 10864 10868 10873 10877 10880 10882 10884 10887 10890 10893 10898 10904 10909 10913 10916 10919 10922 10925 10928 10929 10931 10933 10935 10937 10939 10941 10942 10943 10945 10947 10948 10950 10951 10952 10953 10954 10954 10954 10953 10953 10953 10954 10954 10955 10955 10955 10956 10956 10956 10955 10955 10954 10953 10952 10951 10950 10950 10950 10949 10949 10948 10949 10949 10949 10948 10948 10947 10946 10945 10943 10942 10941 10941 10939 10938 10936 10934
10811 10817 10822 10827 10832 10837 10842 10848 10854 10858 10862 10867 10871 10874 10877 10880 10883 10887 10891 10896 10901 10905 10908 10911 10913 10917 10920 10923 10924 10927 10929 10931 10933 10936 10938 10939 10940 10942 10944 10946 10948 10948 10949 10950 10949 10948 10948 10948 10949 10949 10950 10951 10952 10952 10953 10953 10952 10952 10952 10951 10949 10948 10947 10947 10946 10946 10945 10944 10943 10944 10944 10944 10944 10943 10942 10941 10940 10939 10938 10937 10937 10935 10934 10932 10930
10800 10806 10812 10818 10824 10829 10834 10839 10844 10848 10852 10856 10861 10865 10869 10872 10875 10879 10883 10888 10892 10897 10900 10903 10905 10908 10912 10915 10917 10920 10922 10925 10927 10930 10932 10934 10936 10938 10940 10942 10943 10944 10944 10944 10944 10944 10944 10945 10945 10946 10947 10947 10948 10949 10949 10949 10949 10948 10948 10947 10945 10944 10943 10943 10943 10942 10941 10940 10939 10939 10939 10939 10939 10938 10937 10937 10936 10935 10934 10933 10932 10931 10929 10927 10925
10789 10795 10802 10808 10814 10820 10825 10829 10833 10837 10841 10846 10851 10855 10859 10863 10867 10871 10875 10879 10883 10888 10892 10895 10897 10901 10904 10907 10910 10912 10915 10918 10920 10923 10926 10929 10931 10933 10935 10936 10936 10937 10938 10939 10939 10940 10941 10941 10941 10941 10942 10943 10944 10944 10944 10944 10944 10943 10943 10942 10941 10940 10939 10939 10939 10938 10937 10937 10936 10935 10934 10934 10934 10933 10933 10932 10931 10930 10929 10928 10927 10926 10924 10922 10920
10777 10784 10791 10798 10804 10810 10816 10819 10822 10825 10829 10834 10839 10845 10849 10854 10858 10863 10867 10871 10875 10879 10883 10886 10889 10893 10896 10899 10902 10904 10906 10910 10914 10917 10920 10924 10926 10928 10929 10930 10930 10930 10931 10933 10934 10936 10937 10937 10936 10936 10936 10936 10938 10938 10938 10938 10938 10937 10937 10937 10936 10936 10935 10935 10935 10934 10934 10933 10932 10931 10930 10930 10930 10929 10928 10927 10926 10925 10924 10923 10922 10921 10919 10916 10914
10766 10773 10780 10787 10794 10799 10804 10808 10811 10815 10818 10823 10829 10835 10840 10845 10849 10853 10857 10862 10866 10870 10874 10877 10881 10885 10888 10890 10892 10895 10899 10903 10907 10910 10914 10917 10920 10922 10923 10923 10923 10924 10925 10927 10929 10931 10932 10932 10931 10931 10930 10930 10931 10931 10932 10932 10931 10931 10931 10931 10931 10930 10930 10930 10930 10929 10929 10928 10926 10925 10925 10925 10925 10925 10924 10922 10920 10919 10919 10918 10916 10915 10913 10910 10908
10754 10761 10768 10775 10782 10787 10792 10796 10801 10805 10808 10813 10819 10826 10831 10835 10839 10843 10847 10852 10857 10861 10865 10869 10873 10877 10879 10880 10883 10888 10892 10896 10899 10902 10906 10910 10913 10915 10915 10915 10916 10919 10920 10921 10923 10924 10925 10925 10925 10925 10924 10924 10924 10925 10926 10926 10926 10926 10926 10926 10926 10925 10924 10924 10924 10924 10923 10921 10920 10919 10919 10918 10918 10919 10918 10916 10914 10914 10913 10912 10911 10910 10908 10905 10903
10743 10749 10756 10763 10769 10774 10780 10785 10790 10794 10798 10804 10811 10816 10821 10825 10829 10833 10838 10843 10848 10853 10857 10860 10864 10868 10870 10871 10876 10881 10885 10888 10891 10894 10897 10901 10905 10907 10908 10909 10911 10913 10913 10914 10916 10917 10918 10918 10918 10918 10919 10919 10919 10919 10920 10920 10920 10920 10921 10921 10921 10920 10918 10918 10918 10918 10917 10916 10915 10914 10912 10911 10911 10912 10912 10910 10908 10907 10907 10906 10905 10904 10902 10900 10898
10730 10737 10744 10750 10756 10761 10767 10773 10778 10783 10789 10795 10802 10806 10810 10814 10819 10823 10829 10834 10839 10844 10848 10851 10855 10858 10860 10862 10868 10874 10877 10880 10883 10886 10889 10893 10896 10899 10901 10903 10905 10906 10906 10907 10909 10911 10911 10911 10911 10913 10914 10914 10914 10914 10914 10914 10914 10914 10915 10915 10915 10914 10913 10912 10912 10912 10911 10910 10909 10908 10907 10906 10905 10905 10905 10903 10901 10900 10900 10900 10899 10898 10896 10894 10892
10717 10724 10731 10738 10743 10749 10754 10760 10767 10773 10779 10785 10791 10796 10799 10804 10809 10814 10820 10825 10830 10835 10838 10842 10846 10848 10850 10855 10861 10866 10869 10872 10875 10878 10882 10885 10888 10890 10892 10895 10897 10898 10899 10900 10902 10904 10904 10905 10905 10906 10907 10907 10907 10908 10908 10909 10909 10908 10908 10909 10909 10908 10907 10907 10907 10906 10906 10905 10904 10903 10902 10900 10899 10899 10898 10896 10893 10892 10893 10894 10892 10891 10890 10888 10886
10703 10711 10718 10725 10731 10736 10742 10748 10756 10763 10768 10774 10779 10784 10787 10792 10798 10804 10810 10815 10820 10825 10829 10833 10836 10838 10841 10847 10852 10857 10860 10863 10866 10869 10873 10876 10878 10881 10884 10886 10888 10890 10892 10893 10895 10896 10897 10898 10899 10900 10900 10900 10901 10902 10902 10903 10903 10903 10902 10902 10902 10902 10901 10900 10900 10900 10899 10898 10897 10896 10895 10895 10894 10892 10891 10888 10886 10885 10886 10885 10885 10884 10883 10881 10880
10690 10698 10705 10713 10719 10724 10730 10737 10745 10751 10757 10762 10767 10771 10775 10780 10787 10793 10799 10805 10811 10815 10820 10824 10827 10829 10833 10838 10843 10848 10851 10854 10857 10860 10864 10867 10869 10872 10874 10877 10880 10882 10883 10886 10887 10888 10889 10890 10892 10892 10893 10893 10894 10895 10896 10897 10897 10897 10896 10896 10896 10894 10891 10890 10890 10889 10889 10890 10890 10889 10888 10888 10887 10885 10883 10881 10879 10879 10878 10877 10876 10876 10876 10875 10874
10676 10684 10693 10700 10707 10713 10718 10725 10732 10739 10745 10750 10755 10759 10764 10769 10775 10782 10789 10795 10800 10806 10810 10814 10817 10820 10823 10828 10834 10838 10842 10845 10847 10850 10854 10857 10860 10863 10865 10868 10871 10873 10875 10877 10878 10879 10881 10883 10884 10884 10885 10887 10887 10888 10889 10890 10890 10890 10890 10891 10891 10887 10880 10876 10876 10876 10877 10880 10882 10881 10881 10881 10880 10878 10876 10873 10872 10872 10872 10870 10868 10867 10868 10868 10868
10662 10671 10680 10688 10695 10701 10707 10713 10720 10727 10733 10739 10743 10748 10753 10759 10765 10771 10778 10784 10790 10795 10800 10804 10806 10809 10813 10818 10823 10828 10832 10835 10837 10840 10844 10847 10851 10854 10856 10859 10861 10864 10866 10868 10869 10870 10872 10875 10876 10877 10878 10879 10880 10881 10882 10883 10882 10882 10883 10883 10882 10877 10871 10867 10865 10866 10868 10872 10874 10873 10873 10873 10872 10871 10869 10866 10864 10865 10865 10863 10861 10859 10859 10860 10860
10649 10658 10666 10674 10682 10689 10695 10701 10707 10714 10720 10726 10731 10736 10742 10748 10754 10761 10767 10773 10778 10783 10788 10792 10795 10798 10802 10806 10811 10817 10822 10825 10827 10831 10834 10838 10841 10844 10847 10849 10852 10854 10857 10859 10860 10861 10864 10867 10869 10870 10870 10871 10872 10873 10874 10874 10874 10874 10874 10873 10871 10868 10866 10863 10861 10861 10863 10865 10866 10865 10865 10864 10863 10862 10861 10859 10857 10857 10857 10855 10853 10852 10851 10852 10852
10635 10644 10653 10660 10668 10676 10683 10689 10694 10700 10707 10714 10720 10725 10730 10736 10743 10749 10755 10761 10766 10771 10776 10780 10783 10786 10790 10794 10800 10806 10811 10815 10818 10821 10825 10828 10831 10834 10837 10839 10842 10845 10848 10850 10852 10853 10854 10857 10860 10863 10863 10863 10863 10864 10865 10866 10865 10865 10864 10864 10862 10860 10858 10857 10856 10856 10856 10857 10856 10856 10856 10855 10854 10853 10852 10851 10850 10849 10848 10846 10845 10844 10843 10843 10844
10620 10630 10638 10646 10654 10662 10669 10675 10681 10687 10694 10701 10708 10713 10719 10724 10731 10737 10743 10748 10753 10759 10763 10768 10771 10775 10779 10784 10789 10795 10800 10804 10807 10811 10815 10818 10821 10824 10827 10829 10832 10835 10838 10841 10842 10844 10845 10847 10850 10853 10855 10855 10855 10855 10856 10856 10856 10855 10855 10854 10852 10851 10849 10848 10848 10849 10848 10848 10847 10847 10847 10846 10845 10844 10844 10842 10841 10840 10838 10837 10837 10836 10834 10834 10836
10606 10616 10624 10632 10640 10648 10656 10662 10668 10674 10681 10688 10695 10701 10707 10712 10719 10725 10731 10736 10741 10746 10752 10756 10760 10764 10769 10774 10779 10784 10789 10794 10797 10800 10804 10808 10811 10814 10816 10819 10822 10825 10828 10831 10832 10834 10836 10838 10840 10842 10845 10846 10846 10846 10847 10847 10847 10847 10846 10844 10843 10843 10842 10840 10840 10841 10841 10840 10839 10839 10839 10838 10836 10834 10834 10832 10830 10829 10828 10826 10826 10826 10825 10824 10826
10592 10602 10611 10619 10626 10634 10642 10648 10655 10661 10668 10675 10682 10688 10695 10701 10707 10713 10719 10724 10730 10735 10740 10745 10749 10753 10758 10763 10768 10773 10778 10782 10786 10790 10794 10798 10801 10804 10806 10808 10811 10815 10818 10820 10822 10824 10826 10828 10830 10832 10834 10835 10836 10837 10838 10838 10838 10837 10836 10836 10837 10837 10835 10834 10835 10835 10835 10834 10832 10831 10831 10830 10827 10825 10823 10822 10819 10818 10817 10815 10815 10815 10814 10814 10814
10577 10587 10596 10605 10613 10620 10628 10634 10641 10649 10656 10663 10669 10676 10682 10688 10695 10701 10707 10712 10718 10723 10729 10733 10738 10742 10747 10752 10757 10762 10767 10771 10775 10779 10783 10787 10790 10793 10795 10798 10801 10804 10807 10809 10811 10813 10815 10818 10820 10821 10823 10824 10826 10826 10827 10829 10829 10827 10825 10827 10830 10829 10826 10825 10827 10827 10826 10825 10824 10822 10821 10820 10818 10815 10813 10811 10808 10807 10806 10805 10805 10804 10804 10804 10804
10563 10572 10581 10590 10599 10606 10614 10621 10629 10636 10643 10650 10656 10662 10669 10676 10682 10688 10694 10700 10706 10711 10717 10722 10727 10732 10736 10741 10746 10751 10756 10760 10764 10768 10772 10776 10779 10782 10784 10787 10790 10793 10795 10797 10799 10801 10804 10807 10809 10811 10812 10813 10814 10815 10816 10818 10819 10817 10815 10817 10819 10819 10816 10815 10816 10817 10817 10816 10815 10813 10811 10810 10808 10806 10803 10800 10798 10796 10796 10795 10795 10795 10795 10794 10794